AMC-16

Last updated on Tue Jul 06 2021 15:28:44 GMT+0000 (Coordinated Universal Time)

1 28472U 04048A 21187.06070619 -.00000196 00000-0 00000+0 0 9993 2 28472 0.0164 342.5137 0000815 121.3167 117.2876 1.00272495 60699
UTC large
Height (km)
Speed (km/s)
/
Latitude / Longitude
Inclination (degrees)
Orbital Period (minutes)
Azimuth
Elevation
Range (km)
Doppler Factor

Next 0 passes for location: London (51.5072 / 0.1276)

Sorry there are no passes over London.